Location: Napoli
(40.8639°N, 14.2562°E)
Time: 19:01:59
(UTC+02:00)

ISS - Visible Passes

Search period start: 26 March 2017 00:00
Search period end: 05 April 2017 01:00
Orbit: 399 x 409 km, 51.6° (Epoch: 27 March)

Date Brightness Start Highest point End Pass type
(mag) Time Alt. Az. Time Alt. Az. Time Alt. Az.
26 Mar -2.1 21:06:00 10° SW 21:07:27 24° SSW 21:07:27 24° SSW visible
27 Mar -2.7 20:14:08 10° SSW 20:16:54 26° SE 20:18:27 18° E visible
27 Mar -1.0 21:50:13 10° W 21:51:11 17° W 21:51:11 17° W visible
28 Mar -3.5 20:57:35 10° WSW 21:00:48 64° NW 21:01:52 37° NE visible
29 Mar -3.9 20:05:12 10° SW 20:08:25 66° SE 20:11:40 10° ENE visible
29 Mar -1.4 21:42:31 10° WNW 21:45:00 22° NNW 21:45:00 22° NNW visible
30 Mar -2.1 20:49:35 10° W 20:52:33 31° NNW 20:55:12 12° NE visible
31 Mar -3.0 19:56:51 10° WSW 20:00:02 52° NNW 20:03:14 10° NE visible
31 Mar -1.2 21:35:00 10° NW 21:37:04 16° NNW 21:37:54 14° N visible
01 Apr -1.3 20:41:53 10° WNW 20:44:23 20° NNW 20:46:52 10° NNE visible
01 Apr -0.3 22:20:17 10° NNW 22:20:26 10° NNW 22:20:26 10° NNW visible
02 Apr -1.0 21:27:25 10° NW 21:29:02 13° N 21:30:11 11° NNE visible
03 Apr -1.1 20:34:19 10° NW 20:36:15 15° N 20:38:11 10° NNE visible
03 Apr -0.6 22:11:56 10° NNW 22:12:30 12° NNW 22:12:30 12° NNW visible
04 Apr -1.1 21:19:25 10° NNW 21:20:57 13° N 21:22:07 11° NNE visible
